Hourly Data Report for May 21, 2004

SHERBROOKE A
QUEBEC

45°26'00.000" N
71°41'00.000" W
241.40 m
7028124
71610
YSC

Download Data

Hourly Data (May 2004)
Hourly Data Report for May 21, 2004
TIME
LST
Temp Definition
°C
Dew Point Definition
°C
Rel Hum Definition
%
Precip. Amount Definition
mm

Wind Dir Definition
10's deg

Wind Spd Definition
km/h
Visibility Definition
km
Stn Press Definition
kPa
Hmdx Definition


Wind Chill Definition


Weather Definition


00:00 12.8 10.7 87   18 7 15.0 98.45      
01:00 12.6 10.8 89   23 4 15.0 98.37      
02:00 13.0 11.5 91   22 6 15.0 98.39      
03:00 13.3 12.0 92   25 11 15.0 98.43      
04:00 13.4 12.3 93   27 7 9.7 98.55      
05:00 12.5 11.6 94   26 4 1.6 98.64      
06:00 14.2 12.5 90   29 7 11.3 98.68      
07:00 14.2 11.1 82   31 13 24.1 98.75     Mostly Cloudy
08:00 13.4 10.2 81   32 15 24.1 98.83     Mostly Cloudy
09:00 13.0 8.9 76   32 11 24.1 98.89     Mostly Cloudy
10:00 13.1 7.7 70   31 11 24.1 99.00     Mostly Cloudy
11:00 13.9 6.0 59   31 15 24.1 99.08     Mainly Clear
12:00 14.3 5.1 54   27 17 24.1 99.07     Mainly Clear
13:00 14.5 4.1 50   27 15 24.1 99.08     Mainly Clear
14:00 15.2 1.7 40   32 9 24.1 99.01     Mainly Clear
15:00 15.5 0.8 37   30 17 15.0 99.01      
16:00 15.2 0.6 37   28 9 24.1 98.99     Mainly Clear
17:00 14.2 -1.5 34   34 9 15.0 98.98      
18:00 12.9 -0.4 40   32 7 15.0 99.00      
19:00 10.2 1.6 55   3 4 15.0 99.03      
20:00 7.6 1.3 64   8 4 15.0 98.99      
21:00 5.5 3.1 85   9 4 15.0 99.04      
22:00 7.0 3.1 76   10 7 15.0 99.04      
23:00 6.5 3.0 78   9 9 15.0 99.05      

Notes on Data Quality.

Legend

  • E = Estimated
  • M = Missing
  • NA = Not Available*
  • [empty] = Indicates an unobserved value
Date modified: